Tiempo cada hora Barnukovka

Hoy, 14 Mayo, Viernes

Tiempo Temperatura Precipitaciones Viento Presión Humedad
00:00 +16°C° 0.1 mm 1 mps 753 mmHg 77%
01:00 +16°C° 0.1 mm 1 mps 753 mmHg 76%
02:00 +16°C° 0.1 mm 1 mps 753 mmHg 76%
03:00 +15°C° 0 mm 1 mps 753 mmHg 76%
04:00 +16°C° 0 mm 1 mps 753 mmHg 74%
05:00 +18°C° 0 mm 1 mps 753 mmHg 72%
06:00 +18°C° 0 mm 1 mps 753 mmHg 70%
07:00 +19°C° 0 mm 2 mps 753 mmHg 66%
08:00 +20°C° 0 mm 2 mps 754 mmHg 63%
09:00 +22°C° 0 mm 3 mps 754 mmHg 59%
10:00 +25°C° 0 mm 3 mps 754 mmHg 55%
11:00 +26°C° 0 mm 4 mps 754 mmHg 52%
12:00 +28°C° 0 mm 4 mps 754 mmHg 49%
13:00 +28°C° 0 mm 4 mps 754 mmHg 47%
14:00 +29°C° 0 mm 4 mps 754 mmHg 46%
15:00 +29°C° 0 mm 4 mps 753 mmHg 44%
16:00 +29°C° 0 mm 4 mps 753 mmHg 49%
17:00 +28°C° 0 mm 3 mps 753 mmHg 53%
18:00 +27°C° 0 mm 2 mps 753 mmHg 58%
19:00 +25°C° 0 mm 2 mps 753 mmHg 60%
20:00 +24°C° 0 mm 2 mps 753 mmHg 62%
21:00 +21°C° 0 mm 2 mps 753 mmHg 65%
22:00 +21°C° 0 mm 2 mps 753 mmHg 63%
23:00 +20°C° 0 mm 2 mps 753 mmHg 62%

Mañana, 15 Mayo, Sábado

Tiempo Temperatura Precipitaciones Viento Presión Humedad
00:00 +19°C° 0 mm 2 mps 753 mmHg 61%
01:00 +19°C° 0 mm 2 mps 753 mmHg 60%
02:00 +18°C° 0 mm 2 mps 753 mmHg 60%
03:00 +17°C° 0 mm 2 mps 753 mmHg 60%
04:00 +18°C° 0 mm 2 mps 754 mmHg 59%
05:00 +18°C° 0 mm 2 mps 754 mmHg 59%
06:00 +19°C° 0 mm 2 mps 754 mmHg 58%
07:00 +21°C° 0 mm 3 mps 754 mmHg 52%
08:00 +23°C° 0 mm 4 mps 754 mmHg 46%
09:00 +25°C° 0 mm 5 mps 754 mmHg 40%
10:00 +27°C° 0 mm 5 mps 754 mmHg 37%
11:00 +28°C° 0 mm 5 mps 754 mmHg 34%
12:00 +29°C° 0 mm 6 mps 754 mmHg 30%
13:00 +30°C° 0 mm 6 mps 753 mmHg 31%
14:00 +30°C° 0 mm 6 mps 753 mmHg 32%
15:00 +32°C° 0 mm 6 mps 753 mmHg 32%
16:00 +30°C° 0 mm 5 mps 753 mmHg 38%
17:00 +28°C° 0 mm 4 mps 752 mmHg 43%
18:00 +27°C° 0 mm 3 mps 752 mmHg 48%
19:00 +25°C° 0 mm 3 mps 752 mmHg 49%
20:00 +23°C° 0 mm 2 mps 752 mmHg 49%
21:00 +21°C° 0 mm 2 mps 752 mmHg 49%
22:00 +20°C° 0 mm 2 mps 752 mmHg 50%
23:00 +19°C° 0 mm 2 mps 752 mmHg 50%

Pasado mañana, 16 Mayo, Domingo

Tiempo Temperatura Precipitaciones Viento Presión Humedad
00:00 +18°C° 0 mm 2 mps 752 mmHg 51%
01:00 +18°C° 0 mm 2 mps 752 mmHg 52%
02:00 +18°C° 0 mm 2 mps 752 mmHg 53%
03:00 +17°C° 0 mm 2 mps 752 mmHg 55%
04:00 +18°C° 0 mm 2 mps 752 mmHg 56%
05:00 +19°C° 0 mm 2 mps 753 mmHg 57%
06:00 +19°C° 0 mm 2 mps 753 mmHg 59%
07:00 +21°C° 0 mm 2 mps 753 mmHg 54%
08:00 +24°C° 0 mm 3 mps 753 mmHg 49%
09:00 +26°C° 0 mm 4 mps 753 mmHg 44%
10:00 +27°C° 0 mm 4 mps 753 mmHg 41%
11:00 +28°C° 0 mm 5 mps 753 mmHg 37%
12:00 +29°C° 0 mm 5 mps 753 mmHg 34%
13:00 +30°C° 0 mm 5 mps 753 mmHg 33%
14:00 +30°C° 0 mm 4 mps 752 mmHg 32%
15:00 +32°C° 0 mm 4 mps 752 mmHg 30%
16:00 +30°C° 0 mm 3 mps 752 mmHg 35%
17:00 +29°C° 0 mm 1 mps 752 mmHg 40%
18:00 +26°C° 0 mm 0 mps 752 mmHg 44%
19:00 +27°C° 0 mm 1 mps 752 mmHg 45%
20:00 +25°C° 0 mm 1 mps 752 mmHg 45%
21:00 +23°C° 0 mm 1 mps 752 mmHg 46%
22:00 +23°C° 0 mm 1 mps 752 mmHg 47%
23:00 +22°C° 0 mm 1 mps 752 mmHg 48%

17 Mayo, Lunes

Tiempo Temperatura Precipitaciones Viento Presión Humedad
00:00 +22°C° 0 mm 1 mps 752 mmHg 49%
01:00 +22°C° 0 mm 1 mps 752 mmHg 50%
02:00 +22°C° 0 mm 1 mps 752 mmHg 50%
03:00 +22°C° 0 mm 1 mps 752 mmHg 51%
04:00 +22°C° 0 mm 1 mps 752 mmHg 53%
05:00 +23°C° 0 mm 1 mps 752 mmHg 55%
06:00 +23°C° 0 mm 2 mps 752 mmHg 56%
07:00 +24°C° 0 mm 2 mps 752 mmHg 53%
08:00 +26°C° 0 mm 2 mps 752 mmHg 49%
09:00 +27°C° 0 mm 3 mps 753 mmHg 45%
10:00 +28°C° 0 mm 3 mps 753 mmHg 40%
11:00 +29°C° 0 mm 3 mps 753 mmHg 34%
12:00 +32°C° 0 mm 4 mps 753 mmHg 29%
13:00 +32°C° 0 mm 4 mps 752 mmHg 28%
14:00 +32°C° 0 mm 4 mps 752 mmHg 26%
15:00 +33°C° 0 mm 4 mps 752 mmHg 25%
16:00 +30°C° 0 mm 3 mps 752 mmHg 31%
17:00 +29°C° 0 mm 3 mps 751 mmHg 38%
18:00 +28°C° 0 mm 2 mps 751 mmHg 44%
19:00 +26°C° 0 mm 2 mps 751 mmHg 44%
20:00 +25°C° 0 mm 1 mps 752 mmHg 44%
21:00 +23°C° 0 mm 1 mps 752 mmHg 44%
22:00 +22°C° 0 mm 1 mps 752 mmHg 45%
23:00 +22°C° 0 mm 1 mps 752 mmHg 46%

18 Mayo, Martes

Tiempo Temperatura Precipitaciones Viento Presión Humedad
00:00 +21°C° 0 mm 1 mps 752 mmHg 46%
01:00 +19°C° 0 mm 2 mps 752 mmHg 47%
02:00 +19°C° 0 mm 2 mps 751 mmHg 47%
03:00 +18°C° 0 mm 2 mps 751 mmHg 48%
04:00 +19°C° 0 mm 2 mps 751 mmHg 50%
05:00 +19°C° 0 mm 2 mps 751 mmHg 52%
06:00 +19°C° 0 mm 2 mps 751 mmHg 55%
07:00 +21°C° 0 mm 2 mps 751 mmHg 51%
08:00 +24°C° 0 mm 3 mps 751 mmHg 47%
09:00 +25°C° 0 mm 3 mps 751 mmHg 43%
10:00 +27°C° 0 mm 3 mps 751 mmHg 39%
11:00 +29°C° 0 mm 3 mps 751 mmHg 36%
12:00 +30°C° 0 mm 4 mps 751 mmHg 32%
13:00 +32°C° 0 mm 4 mps 751 mmHg 31%
14:00 +33°C° 0 mm 4 mps 751 mmHg 30%
15:00 +33°C° 0 mm 4 mps 750 mmHg 29%
16:00 +31°C° 0 mm 3 mps 750 mmHg 34%
17:00 +30°C° 0 mm 3 mps 750 mmHg 39%
18:00 +29°C° 0 mm 2 mps 750 mmHg 43%
19:00 +27°C° 0 mm 2 mps 750 mmHg 42%
20:00 +25°C° 0 mm 2 mps 750 mmHg 41%
21:00 +23°C° 0 mm 2 mps 750 mmHg 39%
22:00 +21°C° 0 mm 2 mps 750 mmHg 41%
23:00 +21°C° 0 mm 2 mps 750 mmHg 42%

19 Mayo, Miércoles

Tiempo Temperatura Precipitaciones Viento Presión Humedad
00:00 +20°C° 0 mm 2 mps 751 mmHg 43%
01:00 +20°C° 0 mm 2 mps 751 mmHg 44%
02:00 +19°C° 0 mm 2 mps 751 mmHg 46%
03:00 +19°C° 0 mm 2 mps 751 mmHg 47%
04:00 +19°C° 0 mm 2 mps 751 mmHg 49%
05:00 +21°C° 0 mm 1 mps 751 mmHg 51%
06:00 +21°C° 0 mm 1 mps 751 mmHg 53%
07:00 +23°C° 0 mm 2 mps 752 mmHg 49%
08:00 +25°C° 0 mm 3 mps 752 mmHg 45%
09:00 +26°C° 0 mm 3 mps 752 mmHg 41%
10:00 +28°C° 0 mm 4 mps 752 mmHg 39%
11:00 +29°C° 0 mm 5 mps 751 mmHg 37%
12:00 +30°C° 0 mm 5 mps 751 mmHg 36%
13:00 +32°C° 0 mm 5 mps 751 mmHg 35%
14:00 +32°C° 0 mm 4 mps 751 mmHg 34%
15:00 +33°C° 0 mm 3 mps 751 mmHg 34%
16:00 +30°C° 0 mm 3 mps 751 mmHg 34%
17:00 +29°C° 0 mm 2 mps 751 mmHg 34%
18:00 +28°C° 0 mm 2 mps 751 mmHg 35%
19:00 +27°C° 0 mm 2 mps 750 mmHg 32%
20:00 +26°C° 0 mm 2 mps 750 mmHg 30%
21:00 +25°C° 0 mm 2 mps 750 mmHg 27%
22:00 +24°C° 0 mm 2 mps 750 mmHg 32%
23:00 +23°C° 0 mm 2 mps 750 mmHg 37%
Mostrar más

Necesitamos Su Consentimiento

Meteoprog y nuestros Proveedores de Servicios pueden almacenar y acceder a sus datos personales como cookies, identificadores de dispositivo u otras tecnologías similares de su dispositivo y procesar dichos datos para personalizar contenido y anuncios, además de ofrecer funciones de redes sociales y analizar el tráfico.

  • Almacenar y/o acceder a información en su dispositivo

    Se puede almacenar o acceder a cookies, identificadores de dispositivo u otra información de su dispositivo para los fines anteriormente indicados.

  • Anuncios y contenido personalizados, medición de anuncios y contenido, percepciones del público, y desarrollo de productos

    Los anuncios y el contenido pueden personalizarse en base a su perfil. Se pueden añadir más datos para personalizar mejor los anuncios y contenidos. Se puede medir el rendimiento de los anuncios y contenidos. Se puede obtener la percepción sobre el público que ha visto los anuncios y contenidos. Dichos datos pueden usarse para desarrollar o mejorar la experiencia del usuario, sistemas y software.

Al hacer clic en ‘Estoy De Acuerdo’ usted permitirá el uso de las cookies, identificadores de dispositivo, balizas web u otras tecnologías similares indicadas. Su configuración puede cambiarse desde el navegador de su dispositivo.

Para ciertos fines, los intereses legítimos pueden ser considerados por encima del consentimiento. Puede leer más sobre ello en nuestra Política de Privacidad y Cookies.